Location: Buchdorf
(48.7842°N, 10.8275°E)
Time: 21:37:05
(UTC+00:00)

Cosmos 1140 Rocket - Pass Details

Date: 09 April 2020
Orbit: 745 x 767 km, 74.1° (Epoch: 26 May)

Event Time Altitude Azimuth Distance (km) Brightness Sun altitude
Rises 18:24:15 0° 173° (S) 3,201 6.5 -4.7°
Reaches altitude 10° 18:26:48 10° 164° (SSE) 2,277 5.6 -5.1°
Maximum altitude 18:31:21 32° 102° (ESE) 1,269 4.1 -5.8°
Drops below altitude 10° 18:35:54 10° 40° (NE) 2,280 5.8 -6.5°
Sets 18:38:28 0° 31° (NNE) 3,206 6.6 -6.9°
